Location: Lac Lasalle
(46.0398°N, 74.1576°W)
Time: 01:31:17
(UTC-05:00)

AO-73 - Pass Details

Date: 19 December 2019
Orbit: 582 x 664 km, 97.6° (Epoch: 27 January)

Event Time Altitude Azimuth Distance (km) Brightness Sun altitude
Rises 16:39:09 0° 141° (SE) 2,939 ? -4.7°
Reaches altitude 10° 16:41:32 10° 132° (SE) 2,021 ? -5.1°
Maximum altitude 16:45:28 33° 69° (ENE) 1,062 ? -5.7°
Drops below altitude 10° 16:49:20 10° 6° (N) 1,989 ? -6.3°
Sets 16:51:39 0° 356° (N) 2,885 ? -6.6°
